Martinsburg, WV

12:17 AM EST on December 10, 2019 (GMT -0500)
Eastern W Va Regional-Shepherd

Weather History for KMRB - October, 2019

Change the Weather History Date:

Monday, October 21, 2019

  Actual Average Record
Temperature  
Mean Temperature 58 °F 52 °F  
Max Temperature 64 °F 64 °F 87 °F (1979)
Min Temperature 52 °F 41 °F 22 °F (1972)
Degree Days  
Heating Degree Days 6 13  
Month to date heating degree days 167 209  
Since 1 July heating degree days 179 300  
Cooling Degree Days 0 0  
Month to date cooling degree days 37 8  
Year to date cooling degree days 1280 893  
Growing Degree Days 8 (Base 50)    
Moisture  
Dew Point 50 °F    
Average Humidity 78    
Maximum Humidity 89    
Minimum Humidity 58    
Precipitation  
Precipitation 0.00 in 0.09 in 1.67 in (1970)
Month to date precipitation 2.05 2.07  
Year to date precipitation 36.95 31.88  
Sea Level Pressure  
Sea Level Pressure 30.05 in    
Wind  
Wind Speed 3 mph ()    
Max Wind Speed 9 mph    
Max Gust Speed 23 mph    
Visibility 10.0 miles    
Events      
T = Trace of Precipitation, MM = Missing Value Source: Averaged Metar Reports

Daily Weather History Graph

Daily Weather History Graph

Search for Another Location

Airport or City:

Astronomy

Oct. 21, 2019 Rise Set
Actual Time 7:27 AM EDT 6:24 PM EDT
Civil Twilight 7:00 AM EDT 6:51 PM EDT
Nautical Twilight 6:29 AM EDT 7:23 PM EDT
Astronomical Twilight 5:58 AM EDT 7:54 PM EDT
Moon No Moon Rise 2:43 PM EDT (10/21)
Length of Visible Light 11h 51m
Length of Day
10h 56m
Waning Gibbous, 48% of the Moon is Illuminated
Oct 21
Waning Gibbous
Oct 27
New
Nov 4
First Quarter
Nov 12
Full
Nov 19
Last Quarter

Hourly Weather History & Observations

Time (EDT) Temp. Dew Point Humidity Pressure Visibility Wind Dir Wind Speed Gust Speed Precip Events Conditions
12:14 AM 53.1 °F 50.0 °F 89% 30.01 in 10.0 mi NNW 5.8 mph - N/A   Overcast
12:53 AM 53.1 °F 50.0 °F 89% 30.02 in 10.0 mi North 4.6 mph - N/A   Overcast
1:53 AM 53.1 °F 50.0 °F 89% 30.03 in 10.0 mi North 5.8 mph - N/A   Overcast
2:53 AM 53.1 °F 50.0 °F 89% 30.03 in 10.0 mi North 3.5 mph - N/A   Overcast
3:53 AM 53.1 °F 50.0 °F 89% 30.04 in 10.0 mi North 3.5 mph - N/A   Overcast
4:53 AM 53.1 °F 48.9 °F 86% 30.04 in 10.0 mi NNW 5.8 mph - N/A   Overcast
5:53 AM 53.1 °F 48.9 °F 86% 30.06 in 10.0 mi Calm Calm - N/A   Overcast
6:53 AM 53.1 °F 48.9 °F 86% 30.07 in 10.0 mi Calm Calm - N/A   Overcast
7:53 AM 53.1 °F 48.0 °F 83% 30.07 in 10.0 mi NW 4.6 mph - N/A   Overcast
8:53 AM 53.1 °F 48.0 °F 83% 30.09 in 10.0 mi North 3.5 mph - N/A   Overcast
10:53 AM 55.0 °F 48.9 °F 80% 30.12 in 10.0 mi Variable 3.5 mph - N/A   Overcast
11:53 AM 55.9 °F 48.0 °F 75% 30.12 in 10.0 mi Calm Calm - N/A   Overcast
12:53 PM 59.0 °F 48.9 °F 69% 30.10 in 10.0 mi Variable 4.6 mph - N/A   Mostly Cloudy
1:13 PM 57.9 °F 48.9 °F 72% 30.08 in 10.0 mi Calm Calm - N/A   Partly Cloudy
1:53 PM 61.0 °F 48.9 °F 64% 30.07 in 10.0 mi Variable 4.6 mph - N/A   Mostly Cloudy
2:53 PM 63.0 °F 48.9 °F 60% 30.04 in 10.0 mi Variable 3.5 mph - N/A   Clear
3:53 PM 64.0 °F 50.0 °F 60% 30.03 in 10.0 mi Calm Calm - N/A   Clear
4:53 PM 64.9 °F 50.0 °F 58% 30.01 in 10.0 mi Variable 5.8 mph - N/A   Clear
5:53 PM 63.0 °F 51.1 °F 65% 30.02 in 10.0 mi SE 3.5 mph - N/A   Clear
6:53 PM 57.9 °F 51.1 °F 78% 30.03 in 10.0 mi Calm Calm - N/A   Clear
7:53 PM 55.9 °F 50.0 °F 80% 30.03 in 10.0 mi Calm Calm - N/A   Clear
8:53 PM 57.0 °F 51.1 °F 81% 30.03 in 10.0 mi Variable 3.5 mph - N/A   Clear
9:53 PM 57.0 °F 51.1 °F 81% 30.04 in 10.0 mi Calm Calm - N/A   Clear
10:53 PM 57.0 °F 52.0 °F 83% 30.03 in 10.0 mi SSE 5.8 mph - N/A   Overcast
11:53 PM 59.0 °F 52.0 °F 78% 30.01 in 10.0 mi SSE 5.8 mph - N/A   Overcast